This is the latest recevied weather packets stored in our database for station/object PD2BVG. If no packets are shown the sender has not sent any weather packets the latest 10 day(s).
| Time | Temp. | Humidity | Pressure | Rain* | Wind** | Luminosity | Snow |
|---|---|---|---|---|---|---|---|
| 1777645915 | 23.89° C | 27% | 1021.6 hPa | 0 mm | - | 637 W/m² | - |
| 1777645855 | 23.89° C | 28% | 1021.6 hPa | 0 mm | - | 642 W/m² | - |
| 1777645794 | 23.89° C | 27% | 1021.6 hPa | 0 mm | - | 644 W/m² | - |
| 1777645734 | 23.89° C | 28% | 1021.7 hPa | 0 mm | - | 644 W/m² | - |
| 1777645675 | 23.89° C | 28% | 1021.7 hPa | 0 mm | - | 647 W/m² | - |
| 1777645615 | 23.89° C | 28% | 1021.6 hPa | 0 mm | - | 649 W/m² | - |
| 1777645555 | 23.89° C | 28% | 1021.6 hPa | 0 mm | - | 651 W/m² | - |
| 1777645495 | 23.89° C | 28% | 1021.6 hPa | 0 mm | - | 656 W/m² | - |
| 1777645435 | 23.89° C | 28% | 1021.6 hPa | 0 mm | - | 656 W/m² | - |
| 1777645375 | 23.89° C | 28% | 1021.7 hPa | 0 mm | - | 658 W/m² | - |
| 1777645315 | 23.89° C | 28% | 1021.7 hPa | 0 mm | - | 658 W/m² | - |
| 1777645255 | 23.89° C | 28% | 1021.7 hPa | 0 mm | - | 663 W/m² | - |
| 1777645196 | 23.89° C | 28% | 1021.7 hPa | 0 mm | - | 663 W/m² | - |
| 1777645136 | 23.33° C | 27% | 1021.7 hPa | 0 mm | - | 665 W/m² | - |
| 1777645075 | 23.89° C | 26% | 1021.7 hPa | 0 mm | - | 667 W/m² | - |
| 1777645014 | 23.89° C | 26% | 1021.7 hPa | 0 mm | - | 668 W/m² | - |
| 1777644955 | 23.89° C | 27% | 1021.8 hPa | 0 mm | - | 670 W/m² | - |
| 1777644894 | 23.89° C | 27% | 1021.6 hPa | 0 mm | - | 670 W/m² | - |
| 1777644835 | 23.89° C | 28% | 1021.6 hPa | 0 mm | - | 674 W/m² | - |
| 1777644774 | 23.89° C | 27% | 1021.8 hPa | 0 mm | - | 675 W/m² | - |
| 1777644715 | 23.89° C | 28% | 1021.8 hPa | 0 mm | - | 677 W/m² | - |
| 1777644657 | 23.89° C | 28% | 1021.8 hPa | 0 mm | - | 677 W/m² | - |
| 1777644595 | 23.89° C | 28% | 1021.8 hPa | 0 mm | - | 681 W/m² | - |
| 1777644535 | 23.89° C | 29% | 1021.8 hPa | 0 mm | - | 682 W/m² | - |
| 1777644474 | 23.89° C | 29% | 1021.8 hPa | 0 mm | - | 684 W/m² | - |
* Rain latest hour (hover to see other rain measurements)
** Current wind speed in m/s (hover to see current wind gust speed)